Weather History for MMLO - January, 2014

Change the Weather History Date:

Wednesday, January 22, 2014

  Actual Average Record
Temperature  
Mean Temperature 57 °F -  
Max Temperature 77 °F 73 °F 84 °F (2012)
Min Temperature 37 °F 42 °F 37 °F (2014)
Degree Days  
Heating Degree Days 8    
Growing Degree Days 7 (Base 50)    
Moisture  
Dew Point 32 °F    
Average Humidity 45    
Maximum Humidity 81    
Minimum Humidity 17    
Precipitation  
Precipitation 0.00 in - - ()
Sea Level Pressure  
Sea Level Pressure 30.15 in    
Wind  
Wind Speed 3 mph ()    
Max Wind Speed 9 mph    
Max Gust Speed -    
Visibility 8.9 miles    
Events      
Averages and records for this station are not official NWS values.
T = Trace of Precipitation, MM = Missing Value Source: Averaged Metar Reports

Daily Weather History Graph

Daily Weather History Graph

Search for Another Location

Airport or City:

Trip Planner

Search our weather history database for the weather conditions in past years. The results will help you decide how hot, cold, wet, or windy it might be!

Date:

Astronomy

Jan. 22, 2014 Rise Set
Actual Time 7:25 AM CST 6:30 PM CST
Civil Twilight 7:01 AM CST 6:53 PM CST
Nautical Twilight 6:34 AM CST 7:20 PM CST
Astronomical Twilight 6:07 AM CST 7:47 PM CST
Moon No Moon Rise 11:18 AM CST (1/22)
Length of Visible Light 11h 52m
Length of Day
11h 05m
Waning Gibbous, 65% of the Moon is Illuminated
Jan 22
Waning Gibbous
Jan 23
Last Quarter
Jan 30
New
Feb 6
First Quarter
Feb 14
Full

Hourly Weather History & Observations

Time (CST) Temp. Windchill Dew Point Humidity Pressure Visibility Wind Dir Wind Speed Gust Speed Precip Events Conditions
12:44 AM 48.2 °F - 32.0 °F 54% 30.30 in 8.0 mi ENE 9.2 mph - N/A   Clear
2:44 AM 42.8 °F - 32.0 °F 66% 30.09 in 8.0 mi Calm Calm - N/A   Clear
3:44 AM 41.0 °F - 32.0 °F 70% 30.27 in 8.0 mi Calm Calm - N/A   Clear
4:44 AM 39.2 °F 37.0 °F 32.0 °F 75% 30.30 in 8.0 mi NW 3.5 mph - N/A   Clear
5:43 AM 41.0 °F - 32.0 °F 70% 30.10 in 8.0 mi Calm Calm - N/A   Clear
6:47 AM 39.2 °F 37.0 °F 32.0 °F 75% 30.30 in 8.0 mi ENE 3.5 mph - N/A   Partly Cloudy
7:42 AM 37.4 °F 32.8 °F 32.0 °F 81% 30.30 in 9.0 mi NE 5.8 mph - N/A   Scattered Clouds
8:41 AM 48.2 °F - 32.0 °F 54% 30.13 in 10.0 mi Calm Calm - N/A   Partly Cloudy
9:43 AM 53.6 °F - 32.0 °F 44% 30.35 in 10.0 mi Calm Calm - N/A   Partly Cloudy
11:40 AM 64.4 °F - 32.0 °F 30% 30.07 in 10.0 mi Calm Calm - N/A   Scattered Clouds
12:46 PM 69.8 °F - 32.0 °F 25% 30.27 in 10.0 mi South 6.9 mph - N/A   Partly Cloudy
1:46 PM 73.4 °F - 32.0 °F 22% 30.21 in 10.0 mi Calm Calm - N/A   Clear
2:49 PM 75.2 °F - 28.4 °F 18% 29.90 in 10.0 mi Calm Calm - N/A   Clear
3:43 PM 77.0 °F - 28.4 °F 17% 30.15 in 10.0 mi Calm Calm - N/A   Clear
4:46 PM 75.2 °F - 30.2 °F 19% 30.12 in 10.0 mi Calm Calm - N/A   Clear
5:44 PM 73.4 °F - 30.2 °F 20% 29.87 in 10.0 mi Calm Calm - N/A   Clear
6:55 PM 66.2 °F - 32.0 °F 28% 30.15 in 8.0 mi Calm Calm - N/A   Clear
7:41 PM 62.6 °F - 32.0 °F 32% 30.15 in 8.0 mi Calm Calm - N/A   Clear
8:45 PM 55.4 °F - 33.8 °F 44% 29.99 in 8.0 mi NE 6.9 mph - N/A   Clear
9:43 PM 53.6 °F - 33.8 °F 47% 30.18 in 8.0 mi NNE 6.9 mph - N/A   Clear
10:48 PM 51.8 °F - 33.8 °F 50% 30.19 in 8.0 mi NNE 5.8 mph - N/A   Clear
11:43 PM 51.8 °F - 33.8 °F 50% 29.92 in 8.0 mi NE 8.1 mph - N/A   Clear